Weather History for Colorado Springs, CO

Change the Weather History Date:

Tuesday, June 18, 2013

  Actual Average Record
Temperature  
Mean Temperature 68 °F 66 °F  
Max Temperature 84 °F 80 °F 98 °F (2012)
Min Temperature 51 °F 52 °F 32 °F (1912)
Degree Days  
Heating Degree Days 0 2  
Month to date heating degree days 25 63  
Since 1 June heating degree days 25 63  
Since 1 July heating degree days 6128 6276  
Cooling Degree Days 3 3  
Month to date cooling degree days 73 32  
Year to date cooling degree days 95 42  
Since 1 June cooling degree days 73 32  
Growing Degree Days 16 (Base 50)    
Moisture  
Dew Point 48 °F    
Average Humidity 54    
Maximum Humidity 83    
Minimum Humidity 24    
Precipitation  
Precipitation 0.09 in 0.08 in 0.74 in (1982)
Month to date precipitation 0.33 1.60  
Year to date precipitation 3.06 6.71  
Snow  
Snow 0.00 in 0.00 in 0.00 in (2002)
Month to date snowfall 0.0 0.0  
Since 1 June snowfall 0.0 0.0  
Since 1 July snowfall 29.6 37.7  
Snow Depth 0.00 in    
Sea Level Pressure  
Sea Level Pressure 29.97 in    
Wind  
Wind Speed 11 mph (SE)    
Max Wind Speed 35 mph    
Max Gust Speed 39 mph    
Visibility 10 miles    
Events Rain , Thunderstorm    
T = Trace of Precipitation, MM = Missing Value Source: NWS Daily Summary

Daily Weather History Graph

Daily Weather History Graph

Search for Another Location

Airport:

Trip Planner

Search our weather history database for the weather conditions in past years. The results will help you decide how hot, cold, wet, or windy it might be!

Date:

Astronomy

Jun. 18, 2013 Rise Set
Actual Time 5:33 AM MDT 8:26 PM MDT
Civil Twilight 5:01 AM MDT 8:58 PM MDT
Nautical Twilight 4:21 AM MDT 9:38 PM MDT
Astronomical Twilight 3:34 AM MDT 10:25 PM MDT
Moon 3:16 PM MDT (6/18) 1:40 AM MDT (6/18)
Length of Visible Light 15h 57m
Length of Day
14h 53m
Waxing Gibbous, 71% of the Moon is Illuminated
Jun 18
Waxing Gibbous
Jun 23
Full
Jun 29
Last Quarter
Jul 8
New
Jul 15
First Quarter

Hourly Weather History & Observations

Time (MDT) Temp. Dew Point Humidity Pressure Visibility Wind Dir Wind Speed Gust Speed Precip Events Conditions
12:54 AM 57.0 °F 46.0 °F 67% 30.03 in 10.0 mi SSE 12.7 mph - N/A   Mostly Cloudy
1:54 AM 57.0 °F 48.0 °F 72% 30.03 in 10.0 mi South 13.8 mph - N/A   Mostly Cloudy
2:54 AM 57.0 °F 48.0 °F 72% 30.03 in 10.0 mi South 11.5 mph - N/A   Clear
3:54 AM 55.9 °F 46.9 °F 72% 30.00 in 10.0 mi SSE 4.6 mph - N/A   Clear
4:54 AM 53.1 °F 46.9 °F 80% 29.99 in 10.0 mi East 8.1 mph - N/A   Partly Cloudy
5:54 AM 51.1 °F 46.9 °F 86% 30.04 in 10.0 mi ENE 6.9 mph - N/A   Partly Cloudy
6:54 AM 57.9 °F 48.9 °F 72% 30.01 in 10.0 mi WNW 4.6 mph - N/A   Scattered Clouds
7:54 AM 63.0 °F 48.9 °F 60% 30.00 in 10.0 mi East 5.8 mph - N/A   Scattered Clouds
8:54 AM 63.0 °F 48.0 °F 58% 30.02 in 10.0 mi ESE 9.2 mph - N/A   Scattered Clouds
9:54 AM 68.0 °F 50.0 °F 52% 30.00 in 10.0 mi SSE 11.5 mph - N/A   Scattered Clouds
10:54 AM 69.1 °F 48.9 °F 49% 29.99 in 10.0 mi SE 11.5 mph 16.1 mph N/A   Scattered Clouds
11:54 AM 73.0 °F 48.0 °F 41% 29.95 in 10.0 mi SE 9.2 mph 16.1 mph N/A   Scattered Clouds
12:59 PM 75.2 °F 46.4 °F 36% 30.14 in 10.0 mi SSE 11.5 mph 20.7 mph N/A   Scattered Clouds
1:54 PM 78.1 °F 46.0 °F 32% 29.86 in 10.0 mi SSE 12.7 mph - N/A   Mostly Cloudy
2:54 PM 82.9 °F 42.1 °F 24% 29.81 in 10.0 mi SSW 16.1 mph 25.3 mph N/A   Mostly Cloudy
3:51 PM 78.8 °F 46.4 °F 32% 30.04 in 10.0 mi SSE 21.9 mph 31.1 mph N/A Thunderstorm Thunderstorm
3:54 PM 78.1 °F 48.0 °F 35% 29.81 in 10.0 mi SSE 21.9 mph 31.1 mph N/A Thunderstorm Thunderstorm
4:04 PM 77.0 °F 48.2 °F 36% 30.03 in 10.0 mi SE 20.7 mph - 0.00 in Rain , Thunderstorm Light Thunderstorms and Rain
4:20 PM 68.0 °F 53.6 °F 60% 30.07 in 5.0 mi SSW 28.8 mph 39.1 mph 0.00 in Rain , Thunderstorm Light Thunderstorms and Rain
4:54 PM 66.0 °F 50.0 °F 56% 29.87 in 10.0 mi South 23.0 mph 28.8 mph 0.09 in Thunderstorm Thunderstorm
4:58 PM 66.2 °F 48.2 °F 52% 30.05 in 10.0 mi SSE 21.9 mph 28.8 mph N/A   Mostly Cloudy
5:28 PM 68.0 °F 50.0 °F 52% 30.07 in 10.0 mi SSW 13.8 mph 25.3 mph N/A   Mostly Cloudy
5:54 PM 71.1 °F 46.9 °F 42% 29.84 in 10.0 mi SE 12.7 mph - N/A   Mostly Cloudy
6:54 PM 68.0 °F 48.0 °F 49% 29.86 in 10.0 mi East 13.8 mph - N/A   Mostly Cloudy
7:54 PM 64.0 °F 48.0 °F 56% 29.84 in 10.0 mi ENE 20.7 mph 26.5 mph N/A   Mostly Cloudy
8:54 PM 60.1 °F 48.0 °F 64% 29.90 in 10.0 mi East 10.4 mph - N/A   Mostly Cloudy
9:54 PM 57.9 °F 48.0 °F 70% 29.93 in 10.0 mi WSW 10.4 mph - N/A   Mostly Cloudy
10:54 PM 57.9 °F 48.0 °F 70% 29.88 in 10.0 mi NE 5.8 mph - N/A   Scattered Clouds
11:54 PM 57.0 °F 46.9 °F 69% 29.90 in 10.0 mi East 9.2 mph - N/A   Scattered Clouds